LAN1498 EFIV-EFHK

Flight info

Callsign LAN1498
Flight time N/A
Altitude 35000
Route SOTIT DCT UGMOR DCT IBOSU Y86 LUSEP
Aircraft A320/M-SDE3FGHIRWY/LB1

Departure

Time 2026-04-20 13:32
Airport Ivalo Airport (EFIV)

Arrival

Time N/A
Airport Helsinki Vantaa Airport (EFHK)
Time Latitude Longitude Altitude Speed Heading
2026-04-20 13:32 68.59010 27.71990 7363 ft 254 kts 205°
2026-04-20 13:32 68.57440 27.69680 7946 ft 259 kts 212°
2026-04-20 13:32 68.55873 27.67271 8653 ft 263 kts 212°
2026-04-20 13:32 68.54256 27.64829 9358 ft 267 kts 212°
2026-04-20 13:33 68.52603 27.62351 9925 ft 279 kts 212°
2026-04-20 13:33 68.50852 27.59714 10378 ft 293 kts 212°
2026-04-20 13:33 68.49012 27.56944 10713 ft 313 kts 212°
2026-04-20 13:33 68.47032 27.53967 10906 ft 336 kts 212°
2026-04-20 13:34 68.44914 27.50790 11047 ft 359 kts 211°
2026-04-20 13:34 68.42666 27.47427 11182 ft 379 kts 211°
2026-04-20 13:34 68.40301 27.43909 11431 ft 394 kts 211°
2026-04-20 13:34 68.37867 27.40312 11956 ft 400 kts 211°
2026-04-20 13:35 68.35417 27.36701 12554 ft 403 kts 211°
2026-04-20 13:35 68.32944 27.33065 13141 ft 407 kts 211°
2026-04-20 13:35 68.30442 27.29403 13698 ft 410 kts 211°
2026-04-20 13:35 68.27923 27.25721 14240 ft 413 kts 211°
2026-04-20 13:36 68.25455 27.22255 14714 ft 418 kts 207°
2026-04-20 13:36 68.22708 27.19588 15205 ft 424 kts 198°
2026-04-20 13:36 68.19791 27.18116 15683 ft 429 kts 189°
2026-04-20 13:36 68.16829 27.17122 16161 ft 432 kts 190°
2026-04-20 13:37 68.13825 27.16112 16630 ft 435 kts 190°
2026-04-20 13:37 68.10811 27.15098 17090 ft 438 kts 190°
2026-04-20 13:37 68.08671 27.14378 17414 ft 440 kts 190°
2026-04-20 13:37 68.05621 27.13357 17866 ft 443 kts 190°
2026-04-20 13:38 68.02556 27.12337 18320 ft 445 kts 190°
2026-04-20 13:38 67.99472 27.11307 18742 ft 448 kts 190°
2026-04-20 13:38 67.96367 27.10271 19106 ft 451 kts 191°
2026-04-20 13:38 67.93250 27.09237 19476 ft 453 kts 191°
2026-04-20 13:39 67.90106 27.08199 19837 ft 456 kts 191°
2026-04-20 13:39 67.86957 27.07152 20189 ft 458 kts 191°
2026-04-20 13:39 67.83783 27.06094 20538 ft 460 kts 191°
2026-04-20 13:39 67.80603 27.05043 20878 ft 463 kts 191°
2026-04-20 13:40 67.77394 27.03995 21214 ft 465 kts 191°
2026-04-20 13:40 67.74214 27.02966 21529 ft 468 kts 191°
2026-04-20 13:40 67.70928 27.01904 21841 ft 470 kts 191°
2026-04-20 13:40 67.67719 27.00859 22168 ft 472 kts 191°
2026-04-20 13:41 67.64413 26.99777 22498 ft 475 kts 191°
2026-04-20 13:41 67.61123 26.98714 22726 ft 478 kts 191°
2026-04-20 13:41 67.57805 26.97653 22984 ft 481 kts 191°
2026-04-20 13:41 67.54516 26.96602 23249 ft 483 kts 191°
2026-04-20 13:42 67.51176 26.95529 23540 ft 486 kts 191°
2026-04-20 13:42 67.44436 26.93370 24069 ft 490 kts 191°
2026-04-20 13:42 67.41051 26.92301 24315 ft 492 kts 191°
2026-04-20 13:43 67.37644 26.91236 24562 ft 493 kts 191°
2026-04-20 13:43 67.34240 26.90168 24894 ft 492 kts 191°
2026-04-20 13:43 67.30850 26.89100 25250 ft 491 kts 191°
2026-04-20 13:43 67.27466 26.88026 25560 ft 490 kts 191°
2026-04-20 13:44 67.24070 26.86961 25885 ft 490 kts 191°
2026-04-20 13:44 67.20685 26.85910 26228 ft 489 kts 191°
2026-04-20 13:44 67.17311 26.84860 26602 ft 489 kts 191°
2026-04-20 13:44 67.13941 26.83810 26946 ft 488 kts 191°
2026-04-20 13:45 67.10579 26.82770 27308 ft 487 kts 191°
2026-04-20 13:45 67.07211 26.81730 27674 ft 486 kts 191°
2026-04-20 13:45 67.03860 26.80700 28040 ft 485 kts 191°
2026-04-20 13:45 67.00514 26.79673 28413 ft 484 kts 191°
2026-04-20 13:46 66.97175 26.78651 28784 ft 483 kts 191°
2026-04-20 13:46 66.93835 26.77634 29126 ft 482 kts 191°
2026-04-20 13:46 66.90506 26.76627 29504 ft 481 kts 191°
2026-04-20 13:46 66.87189 26.75627 29881 ft 480 kts 191°
2026-04-20 13:47 66.83916 26.74633 30253 ft 479 kts 191°
2026-04-20 13:47 66.80565 26.73610 30604 ft 478 kts 191°
2026-04-20 13:47 66.77262 26.72615 30920 ft 477 kts 191°
2026-04-20 13:47 66.73972 26.71630 31241 ft 476 kts 191°
2026-04-20 13:48 66.70686 26.70654 31562 ft 475 kts 191°
2026-04-20 13:48 66.67445 26.69687 31877 ft 474 kts 191°
2026-04-20 13:48 66.64167 26.68710 32193 ft 473 kts 190°
2026-04-20 13:48 66.60904 26.67746 32516 ft 472 kts 190°
2026-04-20 13:49 66.57638 26.66785 32813 ft 471 kts 189°
2026-04-20 13:49 66.54392 26.65826 33133 ft 470 kts 189°
2026-04-20 13:49 66.51146 26.64865 33447 ft 469 kts 189°
2026-04-20 13:49 66.47912 26.63907 33761 ft 468 kts 189°
2026-04-20 13:50 66.44682 26.62954 34083 ft 467 kts 189°
2026-04-20 13:50 66.41462 26.62007 34381 ft 466 kts 189°
2026-04-20 13:50 66.38246 26.61067 34627 ft 465 kts 189°
2026-04-20 13:50 66.35025 26.60130 34871 ft 465 kts 189°
2026-04-20 13:51 66.31808 26.59195 35109 ft 465 kts 189°
2026-04-20 13:51 66.28595 26.58266 35295 ft 466 kts 188°
2026-04-20 13:51 66.22123 26.56417 35349 ft 471 kts 188°
2026-04-20 13:52 66.15602 26.54557 35352 ft 471 kts 188°
2026-04-20 13:52 66.09088 26.52686 35355 ft 471 kts 188°
2026-04-20 13:53 66.02619 26.50837 35356 ft 471 kts 188°
2026-04-20 13:53 65.96102 26.48987 35355 ft 471 kts 188°
2026-04-20 13:54 65.89580 26.47156 35340 ft 471 kts 187°
2026-04-20 13:54 65.83065 26.45360 35367 ft 471 kts 187°
2026-04-20 13:55 65.76557 26.43553 35356 ft 471 kts 187°
2026-04-20 13:55 65.70034 26.41734 35349 ft 471 kts 187°
2026-04-20 13:56 65.63568 26.39940 35351 ft 471 kts 187°
2026-04-20 13:56 65.57044 26.38153 35349 ft 471 kts 187°
2026-04-20 13:57 65.50529 26.36395 35356 ft 471 kts 187°
2026-04-20 13:57 65.44009 26.34630 35353 ft 471 kts 187°
2026-04-20 13:58 65.37498 26.32860 35355 ft 471 kts 187°
2026-04-20 13:58 65.30981 26.31121 35355 ft 471 kts 187°
2026-04-20 13:59 65.24456 26.29385 35348 ft 471 kts 187°
2026-04-20 13:59 65.17936 26.27647 35363 ft 471 kts 187°
2026-04-20 14:00 65.11427 26.25922 35374 ft 470 kts 187°
2026-04-20 14:00 65.04920 26.24202 35362 ft 470 kts 187°
2026-04-20 14:01 64.98420 26.22501 35364 ft 470 kts 187°
2026-04-20 14:01 64.91949 26.20817 35396 ft 470 kts 186°
2026-04-20 14:02 64.85441 26.19131 35373 ft 471 kts 186°
2026-04-20 14:02 64.78927 26.17446 35375 ft 471 kts 186°
2026-04-20 14:03 64.72407 26.15773 35365 ft 471 kts 186°
2026-04-20 14:03 64.65885 26.14108 35368 ft 472 kts 186°
2026-04-20 14:04 64.59364 26.12240 35368 ft 472 kts 187°
2026-04-20 14:04 64.52852 26.10145 35377 ft 472 kts 187°
2026-04-20 14:05 64.46353 26.08076 35379 ft 471 kts 187°
2026-04-20 14:05 64.39850 26.06096 35378 ft 471 kts 187°
2026-04-20 14:06 64.33395 26.04156 35374 ft 471 kts 187°
2026-04-20 14:06 64.26900 26.02201 35371 ft 471 kts 187°
2026-04-20 14:07 64.20394 26.00253 35362 ft 471 kts 186°
2026-04-20 14:07 64.13907 25.98318 35368 ft 471 kts 186°
2026-04-20 14:08 64.07408 25.96381 35370 ft 470 kts 186°
2026-04-20 14:08 64.00915 25.94472 35370 ft 470 kts 186°
2026-04-20 14:09 63.95514 25.92868 35361 ft 471 kts 186°
2026-04-20 14:09 63.89017 25.90954 35355 ft 471 kts 186°
2026-04-20 14:10 63.82511 25.89054 35343 ft 472 kts 185°
2026-04-20 14:10 63.74936 25.86856 35351 ft 472 kts 185°
2026-04-20 14:11 63.69480 25.85285 35353 ft 472 kts 185°
2026-04-20 14:11 63.62970 25.83413 35355 ft 472 kts 185°
2026-04-20 14:12 63.56444 25.81540 35347 ft 472 kts 185°
2026-04-20 14:12 63.49934 25.79688 35352 ft 472 kts 185°
2026-04-20 14:13 63.43423 25.77841 35351 ft 472 kts 185°
2026-04-20 14:13 63.36944 25.76015 35354 ft 472 kts 185°
2026-04-20 14:14 63.30432 25.74189 35351 ft 472 kts 185°
2026-04-20 14:14 63.23929 25.72358 35356 ft 471 kts 184°
2026-04-20 14:15 63.17418 25.70543 35354 ft 471 kts 184°
2026-04-20 14:15 63.10915 25.68726 35359 ft 471 kts 184°
2026-04-20 14:16 63.04404 25.66926 35368 ft 472 kts 184°
2026-04-20 14:16 62.97891 25.65139 35356 ft 472 kts 184°
2026-04-20 14:17 62.91366 25.63366 35359 ft 472 kts 184°
2026-04-20 14:17 62.84848 25.61596 35355 ft 472 kts 184°
2026-04-20 14:18 62.78322 25.59826 35354 ft 472 kts 184°
2026-04-20 14:18 62.71799 25.58056 35350 ft 472 kts 183°
2026-04-20 14:19 62.65276 25.56294 35350 ft 472 kts 184°
2026-04-20 14:19 62.58760 25.54547 35355 ft 472 kts 183°
2026-04-20 14:20 62.52242 25.52824 35358 ft 471 kts 183°
2026-04-20 14:20 62.45723 25.51097 35343 ft 471 kts 183°
2026-04-20 14:21 62.39236 25.49384 35346 ft 471 kts 183°
2026-04-20 14:21 62.32752 25.47680 35348 ft 471 kts 183°
2026-04-20 14:22 62.26241 25.45981 35345 ft 471 kts 183°
2026-04-20 14:22 62.19733 25.44285 35348 ft 471 kts 183°